EW2664 Weather Reports


Display with metric or nautical units.
time (UTC)temp
F
wind
direction
speed
MPH
gust
MPH
rain 1hr
in
rain 24hr
in
rain mn
in
humidity
%
barometer
mb
20260504050016 74 46 0.0 0.0 0.00 0.84 0.00 89 1015.3
20260504044524 74 46 0.0 0.0 0.00 0.84 0.00 89 1015.1
20260504043023 74 46 0.0 1.0 0.00 0.84 0.00 89 1014.9
20260504041508 74 51 0.0 2.0 0.00 0.84 0.00 89 1014.7
20260504040012 74 11 0.0 2.0 0.00 0.84 0.00 89 1014.9
20260504034520 74 339 0.0 2.0 0.00 0.84 0.84 89 1015.1
20260504033025 74 98 1.0 3.0 0.00 0.84 0.84 89 1015.2
20260504031505 74 65 0.0 2.0 0.00 0.84 0.84 89 1015.2
20260504030013 74 72 0.0 2.0 0.00 0.84 0.84 88 1015.3
20260504024515 74 314 1.0 2.0 0.00 0.84 0.84 88 1015.4
20260504023022 74 42 0.0 3.0 0.00 0.84 0.84 88 1015.1
20260504021528 74 57 1.0 3.0 0.00 0.84 0.84 88 1015.1
20260504020012 74 59 0.0 3.0 0.00 0.84 0.84 88 1015.1
20260504014512 74 65 2.0 5.0 0.00 0.84 0.84 88 1015.1
20260504013018 74 49 1.0 6.0 0.00 0.84 0.84 88 1015.0
20260504011524 74 106 2.0 4.0 0.00 0.84 0.84 87 1014.9
20260504010005 74 32 2.0 6.0 0.00 0.84 0.84 87 1014.7
20260504004519 74 22 1.0 3.0 0.00 0.84 0.84 87 1014.7
20260504003017 75 38 0.0 3.0 0.00 0.84 0.84 86 1014.6
20260504001522 75 53 1.0 3.0 0.00 0.84 0.84 86 1014.6
20260504000027 75 58 1.0 5.0 0.00 0.84 0.84 85 1014.5
20260503234518 76 59 3.0 6.0 0.00 0.84 0.84 81 1014.3
20260503233014 78 44 0.0 3.0 0.00 0.84 0.84 78 1014.1
20260503231517 78 12 1.0 2.0 0.00 0.84 0.84 78 1014.0
20260503230023 78 69 0.0 3.0 0.00 0.84 0.84 78 1014.0
20260503224524 78 86 1.0 3.0 0.00 0.84 0.84 77 1013.8
20260503223011 78 350 1.0 4.0 0.00 0.84 0.84 77 1013.9
20260503221519 78 55 1.0 4.0 0.00 0.84 0.84 78 1013.8
20260503220039 79 33 1.0 4.0 0.00 0.84 0.84 78 1014.0
20260503214524 79 352 1.0 3.0 0.00 0.84 0.84 77 1014.0
20260503213013 79 51 2.0 4.0 0.00 0.84 0.84 77 1013.9
20260503211516 80 44 2.0 5.0 0.00 0.84 0.84 76 1013.9
20260503210022 80 360 1.0 5.0 0.00 0.84 0.84 76 1014.3
20260503204522 81 30 2.0 4.0 0.00 0.84 0.84 76 1014.2
20260503203031 81 48 2.0 5.0 0.00 0.84 0.84 73 1014.3
20260503201518 81 59 2.0 4.0 0.00 0.84 0.84 73 1014.3
20260503200020 81 360 1.0 3.0 0.00 0.84 0.84 71 1014.3
20260503194524 81 54 1.0 3.0 0.00 0.84 0.84 72 1014.5
20260503193032 82 71 0.0 2.0 0.00 0.84 0.84 69 1014.5
20260503191528 82 346 1.0 8.0 0.00 0.84 0.84 71 1014.7
20260503190016 81 78 1.0 3.0 0.00 0.84 0.84 73 1015.0
20260503184524 80 49 1.0 4.0 0.00 0.84 0.84 75 1015.2
20260503183036 80 9 1.0 3.0 0.00 0.84 0.84 74 1015.4
20260503181527 80 37 0.0 3.0 0.00 0.84 0.84 75 1015.5
20260503180010 80 28 2.0 4.0 0.00 0.84 0.84 75 1015.8
20260503174505 79 100 1.0 4.0 0.00 0.84 0.84 77 1015.9
20260503173003 79 24 1.0 3.0 0.00 0.84 0.84 77 1016.2
20260503171504 79 122 0.0 2.0 0.00 0.84 0.84 78 1016.2
20260503081515 77 342 1.0 4.0 0.00 0.00 0.00 80 1013.9
20260503071512 78 275 0.0 2.0 0.00 0.00 0.00 82 1012.7